AI5KP-13 Weather Reports


time (UTC)temp
C
wind
direction
speed
KPH
gust
KPH
rain 1hr
cm
rain 24hr
cm
rain mn
cm
humidity
%
barometer
mb
20260507052537 7 139 0.0 0.0 0.00 0.00 0.00 96 1017.7
20260507052034 7 139 0.0 0.0 0.00 0.00 0.00 96 1017.6
20260507051532 7 143 0.0 0.0 0.00 0.00 0.00 96 1017.6
20260507051029 7 143 0.0 0.0 0.00 0.00 0.00 96 1017.6
20260507050525 7 142 0.0 1.6 0.00 0.00 0.00 96 1017.5
20260507050021 7 145 0.0 0.0 0.00 0.00 0.00 96 1017.6
20260507045518 7 145 0.0 0.0 0.00 0.00 0.00 95 1017.5
20260507045016 7 145 0.0 0.0 0.00 0.00 0.00 95 1017.4
20260507044512 7 144 0.0 0.0 0.00 0.00 0.00 95 1017.5
20260507044008 7 144 0.0 0.0 0.00 0.00 0.00 95 1017.3
20260507043505 7 144 0.0 0.0 0.00 0.00 0.00 95 1017.5
20260507043001 7 144 0.0 0.0 0.00 0.00 0.00 95 1017.2
20260507042458 7 152 1.6 1.6 0.00 0.00 0.00 96 1017.2
20260507041954 7 127 1.6 3.2 0.00 0.00 0.00 96 1017.3
20260507041450 7 137 3.2 4.8 0.00 0.00 0.00 96 1017.1
20260507040948 7 134 1.6 1.6 0.00 0.00 0.00 95 1017.1
20260507040444 7 132 0.0 0.0 0.00 0.00 0.00 95 1017.1
20260507035939 7 132 0.0 0.0 0.00 0.00 0.00 95 1017.1
20260507035436 7 132 0.0 0.0 0.00 0.00 0.00 95 1017.2
20260507034933 7 132 0.0 0.0 0.00 0.00 0.00 95 1016.8
20260507034430 7 132 0.0 0.0 0.00 0.00 0.00 95 1016.9
20260507033928 7 132 0.0 0.0 0.00 0.00 0.00 95 1017.1
20260507033425 8 132 0.0 0.0 0.00 0.00 0.00 94 1017.0
20260507032922 8 132 0.0 0.0 0.00 0.00 0.00 94 1017.0
20260507032419 8 132 0.0 0.0 0.00 0.00 0.00 94 1017.1
20260507031915 8 132 0.0 0.0 0.00 0.00 0.00 93 1017.1
20260507031412 8 132 0.0 0.0 0.00 0.00 0.00 93 1016.9
20260507030909 8 132 0.0 0.0 0.00 0.00 0.00 93 1016.7
20260507030406 8 132 0.0 0.0 0.00 0.00 0.00 92 1016.8
20260507025903 8 132 0.0 0.0 0.00 0.00 0.00 92 1016.8
20260507025401 9 132 0.0 0.0 0.00 0.00 0.00 91 1016.8
20260507024858 9 132 0.0 0.0 0.00 0.00 0.00 91 1016.6
20260507024355 9 132 0.0 0.0 0.00 0.00 0.00 91 1016.7
20260507023850 9 132 0.0 0.0 0.00 0.00 0.00 91 1016.5
20260507023348 9 132 0.0 0.0 0.00 0.00 0.00 90 1016.6
20260507022845 9 132 0.0 0.0 0.00 0.00 0.00 89 1016.4
20260507022342 10 131 0.0 0.0 0.00 0.00 0.00 88 1016.5
20260507021837 10 131 0.0 0.0 0.00 0.00 0.00 88 1016.4
20260507021333 10 131 0.0 0.0 0.00 0.00 0.00 88 1016.3
20260507020831 10 132 0.0 0.0 0.00 0.00 0.00 86 1016.2
20260507020328 10 132 0.0 0.0 0.00 0.00 0.00 86 1016.1
20260507015825 10 132 0.0 0.0 0.00 0.00 0.00 86 1016.1
20260507015322 10 129 0.0 0.0 0.00 0.00 0.00 85 1016.1
20260507014819 11 129 0.0 0.0 0.00 0.00 0.00 85 1016.0
20260507014315 11 129 0.0 0.0 0.00 0.00 0.00 83 1016.0
20260507013812 11 129 0.0 0.0 0.00 0.00 0.00 81 1016.0
20260507013309 11 129 0.0 0.0 0.00 0.00 0.00 80 1015.9
20260507012807 11 129 0.0 0.0 0.00 0.00 0.00 79 1016.0
20260507012306 12 129 0.0 0.0 0.00 0.00 0.00 78 1015.7
20260507011800 12 129 0.0 0.0 0.00 0.00 0.00 76 1015.8
20260507011256 12 129 0.0 0.0 0.00 0.00 0.00 74 1015.6
20260507010756 13 129 0.0 0.0 0.00 0.00 0.00 73 1015.8
20260507010252 13 129 0.0 0.0 0.00 0.00 0.00 72 1015.8
20260507005750 14 129 0.0 0.0 0.00 0.00 0.00 70 1016.0
20260507005246 14 128 0.0 0.0 0.00 0.00 0.00 69 1015.9
20260507004742 14 129 0.0 1.6 0.00 0.00 0.00 68 1015.9
20260507004240 14 128 0.0 0.0 0.00 0.00 0.00 69 1015.8
20260507003736 14 128 0.0 0.0 0.00 0.00 0.00 70 1015.8
20260507003231 14 104 0.0 0.0 0.00 0.00 0.00 70 1015.8
20260507002728 14 68 1.6 3.2 0.00 0.00 0.00 69 1015.8
20260507002224 14 104 0.0 0.0 0.00 0.00 0.00 68 1016.0
20260507001721 15 112 3.2 3.2 0.00 0.00 0.00 66 1015.8
20260507001218 15 70 4.8 4.8 0.00 0.00 0.00 64 1015.7
20260507000714 15 46 4.8 4.8 0.00 0.00 0.00 61 1015.7
20260507000212 15 92 3.2 3.2 0.00 0.00 0.00 62 1015.8
20260506235708 15 57 1.6 1.6 0.00 0.00 0.00 62 1015.8
20260506235202 15 101 0.0 0.0 0.00 0.00 0.00 63 1015.6
20260506234700 15 113 3.2 4.8 0.00 0.00 0.00 63 1015.7
20260506234157 15 44 4.8 4.8 0.00 0.00 0.00 63 1015.6
20260506233654 15 43 4.8 4.8 0.00 0.00 0.00 63 1015.6
20260506233151 15 340 1.6 3.2 0.00 0.00 0.00 60 1015.6
20260506232647 15 3 1.6 1.6 0.00 0.00 0.00 61 1015.6
20260506232143 15 7 3.2 6.4 0.00 0.00 0.00 60 1015.7
20260506231640 15 38 3.2 4.8 0.00 0.00 0.00 62 1015.4
20260506231139 15 34 1.6 1.6 0.00 0.00 0.00 62 1015.6
20260506230635 15 10 4.8 6.4 0.00 0.00 0.00 62 1015.4
20260506230132 15 355 0.0 1.6 0.00 0.00 0.00 61 1015.7
20260506225628 15 42 1.6 3.2 0.00 0.00 0.00 61 1015.7
20260506225125 15 37 4.8 4.8 0.00 0.00 0.00 60 1015.3
20260506224622 15 12 4.8 6.4 0.00 0.00 0.00 60 1015.2
20260506224118 15 22 9.7 11.3 0.00 0.00 0.00 61 1015.1
20260506223614 15 358 6.4 9.7 0.00 0.00 0.00 61 1014.9
20260506223110 15 11 8.0 11.3 0.00 0.00 0.00 60 1014.6
20260506222608 16 0 1.6 3.2 0.00 0.00 0.00 59 1014.7
20260506222104 16 39 4.8 6.4 0.00 0.00 0.00 61 1014.4
20260506221602 15 5 6.4 6.4 0.00 0.00 0.00 60 1014.5
20260506221100 15 11 4.8 6.4 0.00 0.00 0.00 60 1014.4
20260506220555 16 339 4.8 6.4 0.00 0.00 0.00 59 1014.2
20260506220051 15 9 4.8 6.4 0.00 0.00 0.00 60 1014.2
20260506215548 15 21 6.4 11.3 0.00 0.00 0.00 60 1014.0
20260506215043 16 57 17.7 22.5 0.00 0.00 0.00 58 1014.2
20260506214541 16 48 3.2 4.8 0.00 0.00 0.00 60 1014.2
20260506214038 16 8 6.4 11.3 0.00 0.00 0.00 59 1014.4
20260506213536 16 353 6.4 9.7 0.00 0.00 0.00 58 1014.3
20260506213033 16 50 3.2 4.8 0.00 0.00 0.00 59 1014.6
20260506212529 16 43 11.3 14.5 0.00 0.00 0.00 59 1014.6
20260506212024 15 14 6.4 12.9 0.00 0.00 0.00 58 1014.5
20260506211521 15 3 4.8 6.4 0.00 0.00 0.00 59 1014.5
20260506211018 15 55 6.4 9.7 0.00 0.00 0.00 60 1014.6
20260506210514 15 44 6.4 14.5 0.00 0.00 0.00 60 1014.9
20260506210011 15 22 1.6 3.2 0.00 0.00 0.00 60 1014.7
20260506205508 15 337 3.2 4.8 0.00 0.00 0.00 59 1014.9
20260506205003 15 19 8.0 11.3 0.00 0.00 0.00 58 1014.7
20260506204502 15 63 6.4 6.4 0.00 0.00 0.00 59 1014.7
20260506203958 16 53 3.2 6.4 0.00 0.00 0.00 58 1015.0
20260506203456 16 3 6.4 9.7 0.00 0.00 0.00 57 1015.2
20260506202953 15 19 1.6 3.2 0.00 0.00 0.00 59 1015.4
20260506202450 15 44 4.8 6.4 0.00 0.00 0.00 61 1015.4
20260506201946 15 67 3.2 6.4 0.00 0.00 0.00 62 1015.6
20260506201444 15 79 4.8 4.8 0.00 0.00 0.00 62 1015.6
20260506200940 15 64 3.2 4.8 0.00 0.00 0.00 59 1015.9
20260506200437 15 32 4.8 4.8 0.00 0.00 0.00 58 1015.8
20260506195933 15 39 6.4 9.7 0.00 0.00 0.00 58 1015.8
20260506195430 15 46 9.7 11.3 0.00 0.00 0.00 58 1015.8
20260506194927 15 44 6.4 9.7 0.00 0.00 0.00 58 1015.7
20260506194424 15 8 6.4 9.7 0.00 0.00 0.00 56 1016.0
20260506193916 15 38 3.2 4.8 0.00 0.00 0.00 57 1016.3
20260506193413 16 116 4.8 4.8 0.00 0.00 0.00 52 1016.3
20260506192909 15 349 6.4 9.7 0.00 0.00 0.00 53 1016.4
20260506192406 16 3 6.4 6.4 0.00 0.00 0.00 54 1016.4
20260506191903 15 321 4.8 6.4 0.00 0.00 0.00 55 1016.2
20260506191359 16 352 12.9 16.1 0.00 0.00 0.00 54 1016.6
20260506190856 16 34 6.4 6.4 0.00 0.00 0.00 53 1016.6
20260506190352 16 83 9.7 14.5 0.00 0.00 0.00 54 1016.4
20260506185849 15 20 4.8 4.8 0.00 0.00 0.00 53 1016.6
20260506185346 16 55 4.8 6.4 0.00 0.00 0.00 54 1016.5
20260506184843 16 15 9.7 12.9 0.00 0.00 0.00 56 1016.4
20260506184340 15 0 12.9 17.7 0.00 0.00 0.00 59 1016.5
20260506183837 14 30 8.0 12.9 0.00 0.00 0.00 62 1016.4
20260506183332 15 32 12.9 14.5 0.00 0.00 0.00 60 1016.4
20260506182830 14 14 8.0 9.7 0.00 0.00 0.00 63 1016.6
20260506182327 14 1 6.4 9.7 0.00 0.00 0.00 66 1016.6
20260506181825 14 6 9.7 11.3 0.00 0.00 0.00 64 1016.6
20260506181322 15 4 6.4 11.3 0.00 0.00 0.00 63 1016.6
20260506180819 13 24 4.8 6.4 0.00 0.00 0.00 67 1016.6
20260506180315 15 12 9.7 12.9 0.00 0.00 0.00 65 1016.7
20260506175811 15 37 3.2 4.8 0.00 0.00 0.00 64 1016.7
20260506175308 13 5 14.5 17.7 0.00 0.00 0.00 65 1016.8
20260506174806 15 22 6.4 12.9 0.00 0.00 0.00 64 1017.0
20260506174303 15 44 3.2 3.2 0.00 0.00 0.00 64 1016.8
20260506173800 14 4 4.8 4.8 0.00 0.00 0.00 66 1016.9
20260506173257 13 39 6.4 9.7 0.00 0.00 0.00 66 1017.1
20260506172754 14 36 3.2 3.2 0.00 0.00 0.00 66 1017.5
20260506172250 13 52 0.0 0.0 0.00 0.00 0.00 65 1017.3
20260506171748 13 27 1.6 4.8 0.00 0.00 0.00 67 1017.5
20260506171245 13 19 8.0 11.3 0.00 0.00 0.00 65 1017.4
20260506170743 12 75 3.2 9.7 0.00 0.00 0.00 67 1017.5
20260506170239 12 37 4.8 6.4 0.00 0.00 0.00 67 1017.4
20260506165738 13 59 8.0 12.9 0.00 0.00 0.00 66 1017.5
20260506165234 13 19 4.8 6.4 0.00 0.00 0.00 67 1017.3
20260506164732 13 19 9.7 11.3 0.00 0.00 0.00 67 1016.9
20260506164228 13 331 3.2 4.8 0.00 0.00 0.00 66 1017.1
20260506163725 13 29 4.8 6.4 0.00 0.00 0.00 65 1017.1
20260506163220 13 80 4.8 9.7 0.00 0.00 0.00 67 1016.9
20260506162716 12 48 11.3 14.5 0.00 0.00 0.00 67 1016.7
20260506162214 12 39 9.7 14.5 0.00 0.00 0.00 67 1016.6
20260506161711 12 61 11.3 17.7 0.00 0.00 0.00 69 1016.4
20260506161203 12 35 4.8 9.7 0.00 0.00 0.00 67 1016.5
20260506160700 12 50 11.3 14.5 0.00 0.00 0.00 67 1016.5
20260506160157 12 27 4.8 6.4 0.00 0.00 0.00 69 1016.5
20260506155656 12 71 3.2 4.8 0.00 0.00 0.00 69 1016.6
20260506155152 11 51 4.8 9.7 0.00 0.00 0.00 71 1015.9
20260506153259 11 15 12.9 16.1 0.00 0.00 0.00 70 1015.8
20260506152756 11 19 9.7 12.9 0.00 0.00 0.00 72 1016.1
20260506152254 11 94 14.5 20.9 0.00 0.00 0.00 70 1016.2
20260506151753 11 85 4.8 9.7 0.00 0.00 0.00 71 1015.9
20260506151249 11 27 11.3 16.1 0.00 0.00 0.00 71 1016.4
20260506150745 11 36 9.7 11.3 0.00 0.00 0.00 70 1016.4
20260506150243 12 11 3.2 6.4 0.00 0.00 0.00 69 1016.5
20260506145739 12 50 11.3 14.5 0.00 0.00 0.00 70 1016.1
20260506145235 11 73 6.4 9.7 0.00 0.00 0.00 71 1016.4
20260506144733 11 73 4.8 6.4 0.00 0.00 0.00 74 1016.3
20260506144230 10 50 6.4 11.3 0.00 0.00 0.00 76 1016.0
20260506143728 10 115 16.1 20.9 0.00 0.00 0.00 76 1015.8
20260506143226 10 36 9.7 14.5 0.00 0.00 0.00 77 1016.0
20260506142724 10 25 8.0 14.5 0.00 0.00 0.00 77 1015.7
20260506142221 10 10 6.4 12.9 0.00 0.00 0.00 77 1015.9
20260506141719 10 20 9.7 12.9 0.00 0.00 0.00 77 1015.8
20260506141217 10 5 12.9 20.9 0.00 0.00 0.00 76 1015.7
20260506140714 10 28 4.8 11.3 0.00 0.00 0.00 78 1015.8
20260506140211 10 3 3.2 3.2 0.00 0.00 0.00 78 1015.7
20260506135708 10 341 6.4 11.3 0.00 0.00 0.00 78 1015.6
20260506135204 10 353 8.0 12.9 0.00 0.00 0.00 77 1015.4
20260506134701 10 6 4.8 4.8 0.00 0.00 0.00 78 1015.7
20260506134157 10 31 6.4 9.7 0.00 0.00 0.00 78 1016.0
20260506133654 10 358 9.7 14.5 0.00 0.00 0.00 79 1016.0
20260506133151 10 16 4.8 4.8 0.00 0.00 0.00 78 1016.0
20260506132648 10 78 0.0 1.6 0.00 0.00 0.00 80 1016.0
20260506132145 10 31 9.7 12.9 0.00 0.00 0.00 78 1016.1
20260506131643 9 40 8.0 12.9 0.00 0.00 0.00 79 1016.0
20260506131139 9 6 6.4 9.7 0.00 0.00 0.00 78 1015.9
20260506130636 9 47 8.0 11.3 0.00 0.00 0.00 78 1015.8
20260506130133 9 318 6.4 9.7 0.00 0.00 0.00 78 1016.0
20260506125631 9 353 3.2 3.2 0.00 0.00 0.00 78 1015.8
20260506125129 9 15 8.0 11.3 0.00 0.00 0.00 78 1015.9
20260506124626 9 34 3.2 3.2 0.00 0.00 0.00 79 1015.9
20260506124124 8 357 4.8 6.4 0.00 0.00 0.00 79 1015.7
20260506123622 8 6 4.8 6.4 0.00 0.00 0.00 80 1015.6
20260506123120 8 15 8.0 12.9 0.00 0.00 0.00 79 1015.6
20260506122616 8 20 4.8 6.4 0.00 0.00 0.00 80 1015.2
20260506122114 8 51 11.3 16.1 0.00 0.00 0.00 80 1015.2
20260506121612 8 338 4.8 6.4 0.00 0.00 0.00 80 1015.2
20260506121108 8 68 4.8 6.4 0.00 0.00 0.00 81 1015.0
20260506120606 8 349 8.0 11.3 0.00 0.00 0.00 81 1014.6
20260506115601 8 65 4.8 6.4 0.00 0.00 0.00 79 1014.9
20260506115059 8 26 3.2 4.8 0.00 0.00 0.00 79 1014.6
20260506114556 8 33 4.8 6.4 0.00 0.00 0.00 79 1014.6
20260506114054 8 22 4.8 6.4 0.00 0.00 0.00 78 1014.8
20260506113552 8 22 6.4 9.7 0.00 0.00 0.00 79 1014.5
20260506113049 8 342 4.8 4.8 0.00 0.00 0.00 79 1014.2
20260506112545 8 358 8.0 11.3 0.00 0.00 0.00 79 1014.4
20260506112043 8 19 9.7 12.9 0.00 0.00 0.00 81 1014.3
20260506111541 8 21 4.8 4.8 0.00 0.00 0.00 82 1014.0
20260506111038 8 19 6.4 9.7 0.00 0.00 0.00 82 1013.9
20260506110535 8 38 3.2 3.2 0.00 0.00 0.00 80 1014.1
20260506110033 8 64 4.8 4.8 0.00 0.00 0.00 80 1014.2
20260506105528 8 60 6.4 9.7 0.00 0.00 0.00 80 1014.1
20260506105026 8 53 3.2 4.8 0.00 0.00 0.00 81 1013.7
20260506104524 8 5 3.2 4.8 0.00 0.00 0.00 81 1013.7
20260506104022 8 49 6.4 6.4 0.00 0.00 0.00 81 1013.5
20260506103519 8 58 9.7 12.9 0.00 0.00 0.00 81 1013.6
20260506103015 8 0 6.4 9.7 0.00 0.00 0.00 81 1013.5
20260506102514 8 346 0.0 0.0 0.00 0.00 0.00 81 1013.2
20260506102011 8 48 1.6 3.2 0.00 0.00 0.00 80 1013.0
20260506101507 8 31 4.8 6.4 0.00 0.00 0.00 79 1013.1
20260506101004 8 52 3.2 4.8 0.00 0.00 0.00 79 1012.9
20260506100503 8 39 4.8 6.4 0.00 0.00 0.00 79 1012.4
20260506100000 8 28 8.0 9.7 0.00 0.00 0.00 79 1012.6
20260506095459 8 81 3.2 4.8 0.00 0.00 0.00 79 1012.3
20260506094954 8 38 14.5 20.9 0.00 0.00 0.00 79 1012.3
20260506094453 8 41 3.2 4.8 0.00 0.00 0.00 80 1011.9
20260506093950 8 31 6.4 6.4 0.00 0.00 0.00 81 1011.7
20260506093448 8 102 6.4 11.3 0.00 0.00 0.00 81 1011.7
20260506092946 8 45 6.4 11.3 0.00 0.00 0.00 80 1011.8
20260506092443 8 72 4.8 14.5 0.00 0.00 0.00 82 1011.9
20260506091940 8 24 6.4 6.4 0.00 0.00 0.00 82 1011.8
20260506091438 8 56 3.2 4.8 0.00 0.00 0.00 83 1011.9
20260506090935 8 47 6.4 6.4 0.00 0.00 0.00 83 1011.9
20260506090433 8 41 8.0 11.3 0.00 0.00 0.00 82 1011.9
20260506085929 8 36 4.8 9.7 0.00 0.00 0.00 84 1012.1
20260506085426 8 53 6.4 11.3 0.00 0.00 0.00 84 1012.1
20260506084922 8 53 4.8 9.7 0.00 0.00 0.00 84 1011.7
20260506084420 8 2 9.7 11.3 0.00 0.00 0.00 84 1011.7
20260506083915 8 102 6.4 6.4 0.00 0.00 0.00 86 1011.7
20260506083413 8 33 6.4 6.4 0.00 0.00 0.00 87 1011.9
20260506082910 8 78 6.4 11.3 0.00 0.00 0.00 87 1011.8
20260506082407 8 20 4.8 6.4 0.00 0.00 0.00 88 1011.7
20260506081902 8 32 6.4 6.4 0.00 0.00 0.00 88 1011.4
20260506081401 8 17 8.0 9.7 0.00 0.00 0.00 88 1011.1
20260506080858 8 335 1.6 3.2 0.00 0.00 0.00 88 1011.2
20260506080355 8 29 6.4 9.7 0.00 0.00 0.00 88 1010.9
20260506073339 8 14 11.3 12.9 0.00 0.00 0.00 91 1011.1
20260506072835 8 17 6.4 6.4 0.00 0.00 0.00 91 1011.4
20260506072333 8 14 4.8 6.4 0.00 0.00 0.00 92 1011.1
20260506071831 8 31 8.0 14.5 0.00 0.00 0.00 92 1011.0
20260506071329 8 44 6.4 6.4 0.00 0.00 0.00 91 1011.3
20260506070825 8 58 4.8 4.8 0.00 0.00 0.00 91 1011.5
20260506070323 8 39 11.3 17.7 0.00 0.00 0.00 91 1011.4
20260506062300 8 56 1.6 3.2 0.00 0.00 0.00 92 1011.3
20260506061755 8 20 4.8 4.8 0.00 0.00 0.00 92 1012.1
20260506061253 8 113 1.6 4.8 0.00 0.00 0.00 93 1011.5
20260506060751 8 32 3.2 4.8 0.00 0.00 0.00 93 1011.1
20260506060248 8 52 9.7 12.9 0.00 0.00 0.00 93 1011.4